Weather History for Kansas City, MO

Change the Weather History Date:

Monday, September 3, 2012

  Actual Average Record
Temperature  
Mean Temperature 84 °F -  
Max Temperature 97 °F 85 °F 97 °F (1998)
Min Temperature 71 °F 65 °F 57 °F (2008)
Cooling Degree Days 18    
Growing Degree Days 34 (Base 50)    
Moisture  
Dew Point 68 °F    
Average Humidity 64    
Maximum Humidity 91    
Minimum Humidity 40    
Precipitation  
Precipitation 0.00 in - - ()
Sea Level Pressure  
Sea Level Pressure 29.86 in    
Wind  
Wind Speed 6 mph (East)    
Max Wind Speed 21 mph    
Max Gust Speed 34 mph    
Visibility 10 miles    
Events Thunderstorm    
Averages and records for this station are not official NWS values.
T = Trace of Precipitation, MM = Missing Value Source: NWS Daily Summary

Daily Weather History Graph

Daily Weather History Graph

Search for Another Location

Airport:

Trip Planner

Search our weather history database for the weather conditions in past years. The results will help you decide how hot, cold, wet, or windy it might be!

Date:

Astronomy

Sep. 03, 2012 Rise Set
Actual Time 6:49 AM CDT 7:45 PM CDT
Civil Twilight 6:22 AM CDT 8:12 PM CDT
Nautical Twilight 5:49 AM CDT 8:44 PM CDT
Astronomical Twilight 5:16 AM CDT 9:18 PM CDT
Moon 9:06 PM CDT (9/3) 9:56 AM CDT (9/3)
Length of Visible Light 13h 50m
Length of Day
12h 55m
Waning Gibbous, 90% of the Moon is Illuminated
Sep 3
Waning Gibbous
Sep 8
Last Quarter
Sep 15
New
Sep 22
First Quarter
Sep 29
Full

Hourly Weather History & Observations

Time (CDT) Temp. Heat Index Dew Point Humidity Pressure Visibility Wind Dir Wind Speed Gust Speed Precip Events Conditions
12:54 AM 75.9 °F - 70.0 °F 82% 29.87 in 10.0 mi East 5.8 mph - N/A   Clear
1:54 AM 75.0 °F - 69.1 °F 82% 29.87 in 10.0 mi Calm Calm - N/A   Clear
2:54 AM 75.0 °F - 70.0 °F 84% 29.88 in 10.0 mi Calm Calm - N/A   Clear
3:54 AM 73.9 °F - 69.1 °F 85% 29.89 in 10.0 mi SSW 4.6 mph - N/A   Clear
4:54 AM 73.0 °F - 69.1 °F 87% 29.88 in 10.0 mi NNE 3.5 mph - N/A   Clear
5:54 AM 72.0 °F - 69.1 °F 91% 29.88 in 10.0 mi East 3.5 mph - N/A   Clear
6:54 AM 72.0 °F - 68.0 °F 87% 29.89 in 9.0 mi Calm Calm - N/A   Clear
7:54 AM 75.0 °F - 70.0 °F 84% 29.89 in 10.0 mi Calm Calm - N/A   Clear
8:54 AM 78.1 °F - 70.0 °F 76% 29.89 in 10.0 mi ESE 4.6 mph - N/A   Clear
9:54 AM 82.9 °F 86.5 °F 69.1 °F 63% 29.89 in 10.0 mi ESE 8.1 mph - N/A   Clear
10:54 AM 87.1 °F 91.3 °F 69.1 °F 55% 29.89 in 10.0 mi SE 5.8 mph - N/A   Clear
11:54 AM 89.1 °F 93.7 °F 69.1 °F 52% 29.88 in 10.0 mi ESE 6.9 mph - N/A   Clear
12:54 PM 91.9 °F 96.9 °F 69.1 °F 47% 29.87 in 10.0 mi SSE 6.9 mph - N/A   Clear
1:54 PM 93.9 °F 99.1 °F 69.1 °F 44% 29.85 in 10.0 mi SE 8.1 mph - N/A   Clear
2:54 PM 95.0 °F 100.7 °F 69.1 °F 43% 29.83 in 10.0 mi SE 8.1 mph - N/A   Clear
3:54 PM 96.1 °F 101.0 °F 68.0 °F 40% 29.82 in 10.0 mi East 8.1 mph 18.4 mph N/A   Clear
4:54 PM 96.1 °F 101.0 °F 68.0 °F 40% 29.81 in 10.0 mi East 11.5 mph - N/A   Clear
5:54 PM 95.0 °F 99.5 °F 68.0 °F 41% 29.80 in 10.0 mi East 10.4 mph - N/A   Clear
6:54 PM 91.9 °F 95.9 °F 68.0 °F 45% 29.80 in 10.0 mi East 9.2 mph - N/A   Clear
7:54 PM 89.1 °F 93.7 °F 69.1 °F 52% 29.80 in 10.0 mi East 6.9 mph - N/A   Partly Cloudy
8:54 PM 86.0 °F 90.1 °F 69.1 °F 57% 29.80 in 10.0 mi ENE 6.9 mph - N/A   Clear
9:54 PM 84.9 °F 88.8 °F 69.1 °F 59% 29.81 in 10.0 mi ENE 9.2 mph - N/A   Clear
10:54 PM 82.9 °F 85.4 °F 66.9 °F 58% 29.89 in 10.0 mi North 20.7 mph 33.4 mph N/A Thunderstorm Mostly Cloudy
11:03 PM 80.6 °F 81.8 °F 62.6 °F 54% 29.97 in 10.0 mi North 19.6 mph 34.5 mph N/A Thunderstorm Overcast
11:41 PM 71.6 °F - 64.4 °F 78% 29.92 in 10.0 mi ENE 19.6 mph 31.1 mph N/A   Scattered Clouds
11:54 PM 71.1 °F - 64.9 °F 81% 29.88 in 10.0 mi East 17.3 mph 25.3 mph N/A   Clear